Location: PSU-Greenbush Astrophysical Observatory
(37.5140°N, 94.9880°W)
Time: 04:57:17
(UTC-06:00)

Transit 2A - Pass Details

Date: 25 January 2020
Orbit: 600 x 959 km, 66.7° (Epoch: 19 February)

Event Time Altitude Azimuth Distance (km) Brightness Sun altitude
Rises 05:33:07 0° 329° (NNW) 3,025 - -22.9°
Reaches altitude 10° 05:35:21 10° 327° (NNW) 2,153 - -22.5°
Exits shadow 05:38:55 48° 309° (NW) 951 6.1 -21.8°
Maximum altitude 05:40:13 69° 245° (WSW) 795 5.8 -21.5°
Drops below altitude 10° 05:45:36 10° 162° (SSE) 2,376 8.9 -20.5°
Sets 05:48:10 0° 160° (SSE) 3,362 9.7 -20.0°
